Volver al catálogo

YAOGAN-43 02B

ActivoMilitarVLEO
NORAD 60946·PAYLOAD·🇨🇳 China

Lanzado Sep 3, 2024 desde Xichang Satellite Launch Center

Loading…

Próximos Pases (próximas 24 horas)

TLE

ActualizadoSource: Space-Track

Época: Sep 14, 2026, 14:16 UTC

1 60946U 24156B   26257.59448183  .00008626  00000-0  35955-3 0  9999
2 60946  34.9967 355.7113 0000713 254.6099 105.4537 15.22967905113080

Sigue YAOGAN-43 02B en tiempo real con AllMySat

Download on the App Store